Weather History for St. Cloud, MN

Change the Weather History Date:

Thursday, December 19, 2013

  Actual Average Record
Temperature  
Mean Temperature 16 °F 14 °F  
Max Temperature 22 °F 23 °F 50 °F (1923)
Min Temperature 10 °F 6 °F -41 °F (1983)
Degree Days  
Heating Degree Days 49 50  
Month to date heating degree days 1085 900  
Since 1 July heating degree days 2958 2825  
Cooling Degree Days 0 0  
Month to date cooling degree days 0 0  
Year to date cooling degree days 578 465  
Moisture  
Dew Point 7 °F    
Average Humidity 75    
Maximum Humidity 84    
Minimum Humidity 66    
Precipitation  
Precipitation 0.16 in 0.03 in 0.40 in (1902)
Month to date precipitation 1.41 0.52  
Year to date precipitation 28.48 27.43  
Snow  
Snow 2.60 in 0.30 in 4.00 in (1968)
Month to date snowfall 15.0 5.8  
Since 1 July snowfall 18.6 15.0  
Snow Depth 8.00 in    
Sea Level Pressure  
Sea Level Pressure 30.07 in    
Wind  
Wind Speed 9 mph (North)    
Max Wind Speed 16 mph    
Max Gust Speed 21 mph    
Visibility 6 miles    
Events Snow    
T = Trace of Precipitation, MM = Missing Value Source: NWS Daily Summary

Daily Weather History Graph

Daily Weather History Graph

Search for Another Location

Airport:

Trip Planner

Search our weather history database for the weather conditions in past years. The results will help you decide how hot, cold, wet, or windy it might be!

Date:

Astronomy

Dec. 19, 2013 Rise Set
Actual Time 7:52 AM CST 4:34 PM CST
Civil Twilight 7:18 AM CST 5:08 PM CST
Nautical Twilight 6:40 AM CST 5:46 PM CST
Astronomical Twilight 6:04 AM CST 6:22 PM CST
Moon 7:07 PM CST (12/19) 9:06 AM CST (12/19)
Length of Visible Light 9h 50m
Length of Day
8h 42m
Waning Gibbous, 95% of the Moon is Illuminated
Dec 19
Waning Gibbous
Dec 25
Last Quarter
Jan 1
New
Jan 7
First Quarter
Jan 15
Full

Hourly Weather History & Observations

Time (CST) Temp. Windchill Dew Point Humidity Pressure Visibility Wind Dir Wind Speed Gust Speed Precip Events Conditions
12:53 AM 19.9 °F 9.3 °F 15.1 °F 81% 29.91 in 10.0 mi NNW 9.2 mph - N/A   Clear
1:41 AM 19.4 °F 8.6 °F 14.0 °F 80% 29.87 in 10.0 mi NNW 9.2 mph - N/A   Mostly Cloudy
1:53 AM 19.9 °F 11.1 °F 14.0 °F 78% 29.95 in 10.0 mi NNW 6.9 mph - N/A   Overcast
2:31 AM 19.4 °F 6.0 °F 14.0 °F 80% 29.87 in 10.0 mi North 13.8 mph 20.7 mph N/A   Overcast
2:53 AM 19.0 °F 6.1 °F 14.0 °F 81% 29.96 in 10.0 mi North 12.7 mph - N/A   Overcast
3:53 AM 18.0 °F 6.1 °F 12.9 °F 81% 29.99 in 10.0 mi North 10.4 mph - N/A   Overcast
4:35 AM 17.6 °F 8.2 °F 10.4 °F 73% 29.95 in 10.0 mi North 6.9 mph - N/A   Scattered Clouds
4:53 AM 16.0 °F 4.4 °F 9.0 °F 74% 30.03 in 10.0 mi North 9.2 mph - N/A   Clear
5:20 AM 15.8 °F 0.9 °F 8.6 °F 73% 29.95 in 10.0 mi North 15.0 mph 20.7 mph N/A   Mostly Cloudy
5:53 AM 14.0 °F -0.2 °F 8.1 °F 77% 30.05 in 10.0 mi North 12.7 mph - N/A   Overcast
6:53 AM 12.9 °F 2.6 °F 7.0 °F 77% 30.09 in 10.0 mi North 6.9 mph - N/A   Overcast
7:35 AM 12.2 °F 4.3 °F 6.8 °F 79% 30.01 in 10.0 mi NNE 4.6 mph - N/A   Partly Cloudy
7:53 AM 12.0 °F 2.7 °F 6.1 °F 77% 30.11 in 10.0 mi NNE 5.8 mph - N/A   Clear
8:53 AM 12.0 °F -2.0 °F 5.0 °F 73% 30.13 in 10.0 mi NNE 11.5 mph 16.1 mph N/A   Clear
9:53 AM 10.0 °F -0.9 °F 3.0 °F 73% 30.15 in 10.0 mi NNE 6.9 mph 16.1 mph N/A   Partly Cloudy
10:53 AM 10.0 °F -3.7 °F 1.9 °F 70% 30.19 in 10.0 mi North 10.4 mph - N/A   Scattered Clouds
11:53 AM 10.0 °F -2.9 °F 1.9 °F 70% 30.16 in 10.0 mi NNE 9.2 mph - N/A   Partly Cloudy
12:53 PM 12.0 °F 0.5 °F 3.0 °F 67% 30.14 in 10.0 mi NNE 8.1 mph - N/A   Partly Cloudy
1:53 PM 12.0 °F 2.7 °F 3.0 °F 67% 30.14 in 10.0 mi North 5.8 mph - N/A   Scattered Clouds
2:53 PM 12.9 °F 1.6 °F 3.0 °F 65% 30.13 in 10.0 mi North 8.1 mph - N/A   Overcast
3:53 PM 12.9 °F -0.2 °F 3.0 °F 65% 30.13 in 10.0 mi NNE 10.4 mph 16.1 mph N/A   Overcast
4:53 PM 12.0 °F -2.7 °F 3.0 °F 67% 30.13 in 10.0 mi North 12.7 mph 18.4 mph N/A   Overcast
5:53 PM 12.0 °F -3.4 °F 3.0 °F 67% 30.14 in 10.0 mi NNE 13.8 mph 18.4 mph N/A   Overcast
6:35 PM 12.2 °F 0.7 °F 5.0 °F 73% 30.07 in 2.5 mi NNE 8.1 mph - 0.00 in Snow Light Snow
6:53 PM 12.0 °F 0.5 °F 6.1 °F 77% 30.18 in 1.2 mi NNE 8.1 mph - 0.00 in Snow Light Snow
7:02 PM 12.2 °F -1.0 °F 6.8 °F 79% 30.08 in 0.8 mi North 10.4 mph - 0.01 in Snow Light Snow
7:18 PM 12.2 °F -1.8 °F 8.6 °F 85% 30.08 in 1.0 mi North 11.5 mph - 0.02 in Snow Light Snow
7:40 PM 10.4 °F -2.4 °F 8.6 °F 92% 30.08 in 0.8 mi North 9.2 mph - 0.03 in Snow Light Snow
7:53 PM 10.9 °F -3.4 °F 7.0 °F 84% 30.17 in 0.8 mi North 11.5 mph - 0.04 in Snow Light Snow
8:19 PM 10.4 °F -1.5 °F 6.8 °F 85% 30.08 in 1.0 mi NNE 8.1 mph - 0.03 in Snow Light Snow
8:43 PM 10.4 °F -1.5 °F 6.8 °F 85% 30.07 in 1.2 mi NNE 8.1 mph - 0.04 in Snow Light Snow
8:53 PM 10.0 °F -4.5 °F 6.1 °F 84% 30.16 in 1.0 mi NNE 11.5 mph - 0.04 in Snow Light Snow
9:20 PM 10.4 °F -1.5 °F 6.8 °F 85% 30.06 in 1.2 mi NNE 8.1 mph - 0.02 in Snow Light Snow
9:53 PM 10.9 °F -1.8 °F 7.0 °F 84% 30.16 in 1.8 mi NNE 9.2 mph - 0.03 in Snow Light Snow
10:10 PM 10.4 °F -1.5 °F 6.8 °F 85% 30.06 in 2.0 mi NNE 8.1 mph - 0.00 in Snow Light Snow
10:22 PM 10.4 °F -2.4 °F 6.8 °F 85% 30.05 in 1.2 mi NNE 9.2 mph - 0.00 in Snow Light Snow
10:53 PM 10.9 °F -0.8 °F 7.0 °F 84% 30.14 in 1.2 mi NNE 8.1 mph 16.1 mph 0.02 in Snow Light Snow
11:07 PM 10.4 °F 0.8 °F 6.8 °F 85% 30.05 in 1.2 mi NNE 5.8 mph - 0.01 in Snow Light Snow
11:53 PM 10.9 °F -0.8 °F 7.0 °F 84% 30.14 in 1.5 mi NNE 8.1 mph - 0.03 in Snow Light Snow